Regional Weather Roundup
Issued by NWS New Orleans/Baton Rouge, LA

Home | Current Version | Previous Version | Text Only | Print | Product List | Glossary On
Versions: 1 2 3 4 5 6 7 8 9 10 11 12 13 14 15 16 17 18 19 20 21 22 23 24 25 26 27 28 29 30 31 32 33 34 35 36 37 38 39 40 41 42 43 44 45 46 47 48 49 50
000
ASUS44 KLIX 291913
RWRLIX
NEW ORLEANS REGIONAL WEATHER ROUNDUP
NATIONAL WEATHER SERVICE NEW ORLEANS LA
200 PM CDT MON MAY 29 2017

NOTE: "FAIR" INDICATES FEW OR NO CLOUDS BELOW 12,000 FEET WITH NO
      SIGNIFICANT WEATHER AND/OR OBSTRUCTIONS TO VISIBILITY.
      SKY/WX - SKY CONDITION AND SIGNIFICANT WEATHER.
      TMP - AIR TEMPERATURE.     DP    - DEWPOINT TEMPERATURE.
      RH  - RELATIVE HUMIDITY.   PRES  - PRESSURE.
      HI  - HEAT INDEX.          WCI   - WIND CHILL INDEX.

*  THESE STATIONS ARE NOT NWS OR FAA STATIONS AND ARE NOT UNDER
   NWS QUALITY CONTROL.

LAZ038-040-048-061>063-065>067-069-292000-
SOUTHEAST LOUISIANA

CITY           SKY/WX    TMP DP  RH WIND       PRES   REMARKS
N.O. INTL ARPT CLOUDY    84  69  60 S9        30.02S
N.O. LAKEFRONT MOSUNNY   86  68  54 SE9       30.02S
N.O. DOWNTOWN*   N/A     87  68  52 VRB6        N/A
RESERVE*         N/A     86  70  59 S5        30.03S
SLIDELL        MOSUNNY   85  69  58 SE3       30.01S
BATON ROUGE    PTSUNNY   82  68  62 W7        30.03F
BOOTHVILLE     PTSUNNY   82  71  69 S10       30.02F
BELLE CHASSE   MOSUNNY  N/A N/A N/A SW9       30.01F
BOGALUSA*        N/A     78  66  66 CALM      30.04F
GALLIANO*      CLOUDY    83  69  62 S8        30.02R
NEW ROADS*       N/A     80  70  72 NW5       30.03F
GONZALES*        N/A     81  69  66 CALM      30.02S
HAMMOND*       CLOUDY    79  66  65 NE3       30.03S
HOUMA*         CLOUDY    82  72  69 S14       30.02S
PORT FOURCHON* CLEAR     81  70  69 SE16G25   29.99F

$$

MSZ070-080>082-292000-
SOUTHERN MISSISSIPPI

CITY           SKY/WX    TMP DP  RH WIND       PRES   REMARKS
MCCOMB         CLOUDY    77  67  71 VRB3      30.03F
GULFPORT       MOSUNNY   84  71  65 S6        30.00F
BILOXI         MOSUNNY   82  71  68 S6        30.01F
PASCAGOULA     MOSUNNY   85  66  53 VRB6      30.02F
STENNIS ARPT*  MOSUNNY   82  70  65 SW5       30.02F

$$

COASTAL OBSERVATIONS
LAKE AND NEARSHORE STATIONS

STATION/POSITION TIME  TEMP    WIND        PRES    WAVE
                       AIR SEA DIR/SP/G            HT/PER
                 (UTC) (F)     (DEG/KT/KT) (MB)    (FT/S)
PASCAGOULA       1848   82     230/  5/  7 1016.3
WAVELAND YACHT   1848   78 82  160/  4/  5 1016.4
GRAND ISLE       1848   80 80  160/ 10/ 17 1016.0
SOUTHWEST PASS   1848          130/  4/  5   N/A
NEW CANAL        1848   80 81   10/  6/  7 1016.4
SHELL BEACH      1848   83 82  150/  6/ 10 1016.4

OFFSHORE STATIONS

STATION/POSITION TIME  TEMP    WIND        PRES    WAVE
                       AIR SEA DIR/SP/G            HT/PER
                 (UTC) (F)     (DEG/KT/KT) (MB)    (FT/S)
64 S DAUPHIN ISL 1850   79 79  280/  4/  4 1017.0    3/ 6

$$




USA.gov is the U.S. government's official web portal to all federal, state and local government web resources and services.